Hourly Weather Dzielnik

Today, 12 May, Wednesday

Time Temperature Precipitation Wind Pressure Humidity
00:00 +13°C° 0 mm 6 mps 744 mmHg 72%
01:00 +13°C° 0 mm 6 mps 744 mmHg 72%
02:00 +13°C° 0 mm 6 mps 744 mmHg 73%
03:00 +11°C° 0 mm 6 mps 744 mmHg 73%
04:00 +11°C° 0 mm 6 mps 744 mmHg 74%
05:00 +13°C° 0 mm 6 mps 744 mmHg 74%
06:00 +15°C° 0 mm 6 mps 744 mmHg 74%
07:00 +16°C° 0 mm 7 mps 744 mmHg 74%
08:00 +18°C° 0 mm 7 mps 744 mmHg 69%
09:00 +20°C° 0 mm 8 mps 744 mmHg 64%
10:00 +22°C° 0 mm 8 mps 744 mmHg 59%
11:00 +22°C° 0 mm 8 mps 744 mmHg 57%
12:00 +23°C° 0 mm 8 mps 743 mmHg 56%
13:00 +23°C° 0 mm 8 mps 743 mmHg 54%
14:00 +22°C° 0 mm 8 mps 743 mmHg 59%
15:00 +21°C° 0 mm 8 mps 743 mmHg 64%
16:00 +20°C° 0 mm 8 mps 743 mmHg 69%
17:00 +18°C° 0 mm 8 mps 743 mmHg 68%
18:00 +16°C° 0 mm 7 mps 742 mmHg 68%
19:00 +15°C° 0 mm 6 mps 742 mmHg 67%
20:00 +14°C° 0 mm 6 mps 742 mmHg 68%
21:00 +13°C° 0 mm 6 mps 742 mmHg 69%
22:00 +11°C° 0 mm 6 mps 742 mmHg 70%
23:00 +10°C° 0 mm 5 mps 742 mmHg 73%

Tomorrow, 13 May, Thursday

Time Temperature Precipitation Wind Pressure Humidity
00:00 +9°C° 0 mm 5 mps 741 mmHg 77%
01:00 +7°C° 0 mm 4 mps 741 mmHg 80%
02:00 +7°C° 0 mm 4 mps 741 mmHg 82%
03:00 +6°C° 0 mm 4 mps 740 mmHg 85%
04:00 +5°C° 0 mm 4 mps 740 mmHg 87%
05:00 +7°C° 0 mm 4 mps 740 mmHg 82%
06:00 +9°C° 0 mm 5 mps 739 mmHg 77%
07:00 +10°C° 0 mm 5 mps 739 mmHg 71%
08:00 +13°C° 0 mm 5 mps 739 mmHg 67%
09:00 +14°C° 0 mm 5 mps 738 mmHg 63%
10:00 +15°C° 0 mm 5 mps 738 mmHg 58%
11:00 +16°C° 0 mm 5 mps 738 mmHg 57%
12:00 +17°C° 0 mm 5 mps 737 mmHg 55%
13:00 +18°C° 0 mm 4 mps 737 mmHg 54%
14:00 +17°C° 0 mm 4 mps 736 mmHg 61%
15:00 +15°C° 0 mm 4 mps 736 mmHg 68%
16:00 +14°C° 0 mm 4 mps 736 mmHg 75%
17:00 +13°C° 0.1 mm 3 mps 736 mmHg 80%
18:00 +13°C° 0.1 mm 3 mps 736 mmHg 84%
19:00 +13°C° 0.1 mm 2 mps 736 mmHg 89%
20:00 +13°C° 0.1 mm 2 mps 736 mmHg 90%
21:00 +12°C° 0.1 mm 2 mps 736 mmHg 92%
22:00 +12°C° 0.1 mm 2 mps 736 mmHg 94%
23:00 +12°C° 0 mm 2 mps 735 mmHg 94%

Day after tomorrow, 14 May, Friday

Time Temperature Precipitation Wind Pressure Humidity
00:00 +12°C° 0 mm 1 mps 735 mmHg 95%
01:00 +12°C° 0 mm 1 mps 735 mmHg 96%
02:00 +12°C° 0.1 mm 1 mps 735 mmHg 96%
03:00 +12°C° 0.1 mm 1 mps 735 mmHg 96%
04:00 +12°C° 0.1 mm 1 mps 735 mmHg 96%
05:00 +12°C° 0 mm 1 mps 736 mmHg 94%
06:00 +13°C° 0 mm 1 mps 736 mmHg 92%
07:00 +13°C° 0 mm 1 mps 736 mmHg 91%
08:00 +14°C° 0.1 mm 2 mps 737 mmHg 84%
09:00 +16°C° 0.1 mm 2 mps 737 mmHg 77%
10:00 +17°C° 0.1 mm 2 mps 737 mmHg 71%
11:00 +17°C° 0.6 mm 3 mps 738 mmHg 71%
12:00 +16°C° 0.6 mm 5 mps 738 mmHg 72%
13:00 +16°C° 0.6 mm 6 mps 738 mmHg 72%
14:00 +15°C° 0.2 mm 6 mps 739 mmHg 74%
15:00 +14°C° 0.2 mm 6 mps 739 mmHg 75%
16:00 +14°C° 0.2 mm 6 mps 740 mmHg 77%
17:00 +13°C° 0 mm 5 mps 740 mmHg 77%
18:00 +12°C° 0 mm 5 mps 740 mmHg 78%
19:00 +11°C° 0 mm 4 mps 740 mmHg 79%
20:00 +11°C° 0 mm 4 mps 741 mmHg 80%
21:00 +10°C° 0 mm 3 mps 741 mmHg 82%
22:00 +9°C° 0 mm 3 mps 741 mmHg 83%
23:00 +9°C° 0 mm 3 mps 741 mmHg 86%

15 May, Saturday

Time Temperature Precipitation Wind Pressure Humidity
00:00 +8°C° 0 mm 3 mps 741 mmHg 88%
01:00 +7°C° 0 mm 3 mps 741 mmHg 91%
02:00 +8°C° 0 mm 3 mps 741 mmHg 89%
03:00 +8°C° 0 mm 3 mps 741 mmHg 88%
04:00 +8°C° 0 mm 3 mps 742 mmHg 86%
05:00 +9°C° 0 mm 3 mps 742 mmHg 86%
06:00 +9°C° 0 mm 3 mps 742 mmHg 86%
07:00 +9°C° 0 mm 3 mps 742 mmHg 87%
08:00 +11°C° 0 mm 3 mps 742 mmHg 79%
09:00 +12°C° 0 mm 3 mps 742 mmHg 72%
10:00 +14°C° 0 mm 4 mps 743 mmHg 65%
11:00 +15°C° 0 mm 4 mps 743 mmHg 60%
12:00 +17°C° 0 mm 4 mps 743 mmHg 56%
13:00 +18°C° 0 mm 4 mps 742 mmHg 51%
14:00 +18°C° 0 mm 3 mps 742 mmHg 53%
15:00 +18°C° 0 mm 3 mps 742 mmHg 54%
16:00 +18°C° 0 mm 3 mps 742 mmHg 55%
17:00 +16°C° 0 mm 2 mps 742 mmHg 62%
18:00 +15°C° 0 mm 2 mps 742 mmHg 70%
19:00 +13°C° 0 mm 2 mps 742 mmHg 78%
20:00 +12°C° 0 mm 2 mps 742 mmHg 81%
21:00 +10°C° 0 mm 2 mps 743 mmHg 84%
22:00 +10°C° 0 mm 2 mps 743 mmHg 87%
23:00 +9°C° 0 mm 2 mps 743 mmHg 88%

16 May, Sunday

Time Temperature Precipitation Wind Pressure Humidity
00:00 +9°C° 0 mm 2 mps 743 mmHg 89%
01:00 +9°C° 0 mm 2 mps 743 mmHg 90%
02:00 +9°C° 0 mm 2 mps 743 mmHg 90%
03:00 +9°C° 0 mm 2 mps 743 mmHg 90%
04:00 +8°C° 0 mm 2 mps 743 mmHg 90%
05:00 +10°C° 0 mm 2 mps 743 mmHg 84%
06:00 +12°C° 0 mm 3 mps 743 mmHg 79%
07:00 +14°C° 0 mm 3 mps 743 mmHg 73%
08:00 +16°C° 0.1 mm 3 mps 743 mmHg 71%
09:00 +18°C° 0.1 mm 3 mps 743 mmHg 68%
10:00 +19°C° 0.1 mm 4 mps 743 mmHg 65%
11:00 +19°C° 0.8 mm 4 mps 743 mmHg 65%
12:00 +19°C° 0.8 mm 4 mps 742 mmHg 66%
13:00 +20°C° 0.8 mm 4 mps 742 mmHg 66%
14:00 +19°C° 0.5 mm 4 mps 742 mmHg 69%
15:00 +19°C° 0.5 mm 4 mps 741 mmHg 72%
16:00 +18°C° 0.5 mm 4 mps 741 mmHg 75%
17:00 +17°C° 0.4 mm 4 mps 741 mmHg 81%
18:00 +14°C° 0.4 mm 3 mps 741 mmHg 87%
19:00 +13°C° 0.4 mm 3 mps 741 mmHg 92%
20:00 +14°C° 1.2 mm 2 mps 741 mmHg 94%
21:00 +13°C° 1.2 mm 2 mps 741 mmHg 96%
22:00 +13°C° 1.2 mm 2 mps 741 mmHg 98%
23:00 +13°C° 2.4 mm 1 mps 741 mmHg 98%

17 May, Monday

Time Temperature Precipitation Wind Pressure Humidity
00:00 +13°C° 2.4 mm 1 mps 741 mmHg 98%
01:00 +13°C° 2.4 mm 1 mps 740 mmHg 98%
02:00 +13°C° 0.2 mm 1 mps 740 mmHg 98%
03:00 +13°C° 0.2 mm 2 mps 740 mmHg 97%
04:00 +11°C° 0.2 mm 3 mps 740 mmHg 97%
05:00 +12°C° 0 mm 3 mps 740 mmHg 95%
06:00 +12°C° 0 mm 4 mps 741 mmHg 92%
07:00 +13°C° 0 mm 4 mps 741 mmHg 90%
08:00 +14°C° 0.1 mm 4 mps 741 mmHg 83%
09:00 +15°C° 0.1 mm 5 mps 741 mmHg 76%
10:00 +16°C° 0.1 mm 5 mps 742 mmHg 69%
11:00 +16°C° 0 mm 5 mps 742 mmHg 63%
12:00 +17°C° 0 mm 5 mps 742 mmHg 58%
13:00 +19°C° 0 mm 5 mps 742 mmHg 52%
14:00 +19°C° 0 mm 5 mps 742 mmHg 54%
15:00 +19°C° 0 mm 5 mps 742 mmHg 56%
16:00 +19°C° 0 mm 4 mps 742 mmHg 57%
17:00 +17°C° 0 mm 3 mps 742 mmHg 62%
18:00 +16°C° 0 mm 2 mps 742 mmHg 67%
19:00 +14°C° 0 mm 2 mps 742 mmHg 72%
20:00 +13°C° 0 mm 2 mps 742 mmHg 75%
21:00 +12°C° 0 mm 2 mps 742 mmHg 77%
22:00 +10°C° 0 mm 2 mps 742 mmHg 80%
23:00 +11°C° 0 mm 1 mps 742 mmHg 82%
Show more

We Need Your Consent

Meteoprog and our Service Providers may store and access personal data such as cookies, device identifiers or other similar technologies on your device and process such data to personalise content and ads, as well as provide social media features and to analyse the traffic.

  • Store and/or access information on your device

    Cookies, device identifiers or other information can be stored or accessed on your device for the purposes indicated above.

  • Personalised ads and content, ad and content measurement, audience insights, and products development

    Ads and content can be personalised based on a profile. More data can be added to better personalise ads and content. Ad and content performance can be measured. Insights about the audience who saw the ads and content can be derived. Such data can be used to develop or improve user’s experience, systems and software.

By clicking ‘I Agree’ you will allow the use of indicated cookies, device identifiers, web beacons or other similar technologies. Your settings can be changed in the browser on your device.

For certain purposes, legitimate interests may be relied on, rather than consent. You can read more about this in our Privacy and Cookie Policy.